Time,TemperatureF,DewpointF,PressureIn,WindDirection,WindDirectionDegrees,WindSpeedMPH,WindSpeedGustMPH,Humidity,HourlyPrecipIn,Conditions,Clouds,dailyrainin,SoftwareType,DateUTC
2013-07-24 00:01:00,63.0,37.0,-100.00,SE,130,5.0,8.0,38,0.00,,,0.00,,2013-07-24 06:01:00,
2013-07-24 00:11:00,63.0,37.0,-100.00,SE,130,5.0,8.0,38,0.00,,,0.00,,2013-07-24 06:11:00,
2013-07-24 00:24:00,62.0,38.0,-100.00,SE,133,7.0,9.0,40,0.00,,,0.00,,2013-07-24 06:24:00,
2013-07-24 00:34:00,62.0,38.0,-100.00,SE,133,7.0,9.0,40,0.00,,,0.00,,2013-07-24 06:34:00,
2013-07-24 00:53:00,60.0,38.0,-100.00,SE,143,7.0,8.0,43,0.00,,,0.00,,2013-07-24 06:53:00,
2013-07-24 01:02:00,60.0,38.0,-100.00,SE,143,7.0,8.0,43,0.00,,,0.00,,2013-07-24 07:02:00,
2013-07-24 01:12:00,60.0,38.0,-100.00,SE,143,7.0,8.0,43,0.00,,,0.00,,2013-07-24 07:12:00,
2013-07-24 01:43:00,60.0,38.0,-100.00,SE,138,6.0,7.0,44,0.00,,,0.00,,2013-07-24 07:43:00,
2013-07-24 01:53:00,60.0,38.0,-100.00,SE,138,6.0,7.0,44,0.00,,,0.00,,2013-07-24 07:53:00,
2013-07-24 02:02:00,60.0,38.0,-100.00,SE,138,6.0,7.0,44,0.00,,,0.00,,2013-07-24 08:02:00,
2013-07-24 02:22:00,60.0,34.0,-100.00,SE,127,6.0,9.0,38,0.00,,,0.00,,2013-07-24 08:22:00,
2013-07-24 02:32:00,60.0,34.0,-100.00,SE,127,6.0,9.0,38,0.00,,,0.00,,2013-07-24 08:32:00,
2013-07-24 02:42:00,57.0,35.0,-100.00,SE,128,6.0,9.0,44,0.00,,,0.00,,2013-07-24 08:42:00,
2013-07-24 02:52:00,57.0,35.0,-100.00,SE,128,6.0,9.0,44,0.00,,,0.00,,2013-07-24 08:52:00,
2013-07-24 03:02:00,57.0,35.0,-100.00,SE,128,6.0,9.0,44,0.00,,,0.00,,2013-07-24 09:02:00,
2013-07-24 03:22:00,58.0,34.0,-100.00,SE,134,8.0,10.0,40,0.00,,,0.00,,2013-07-24 09:22:00,
2013-07-24 03:32:00,58.0,34.0,-100.00,SE,134,8.0,10.0,40,0.00,,,0.00,,2013-07-24 09:32:00,
2013-07-24 03:43:00,59.0,33.0,-100.00,SE,136,7.0,9.0,37,0.00,,,0.00,,2013-07-24 09:43:00,
2013-07-24 03:53:00,59.0,33.0,-100.00,SE,136,7.0,9.0,37,0.00,,,0.00,,2013-07-24 09:53:00,
2013-07-24 04:02:00,59.0,33.0,-100.00,SE,136,7.0,9.0,37,0.00,,,0.00,,2013-07-24 10:02:00,
2013-07-24 04:22:00,58.0,32.0,-100.00,SSW,196,4.0,6.0,38,0.00,,,0.00,,2013-07-24 10:22:00,
2013-07-24 04:32:00,58.0,32.0,-100.00,SSW,196,4.0,6.0,38,0.00,,,0.00,,2013-07-24 10:32:00,
2013-07-24 04:43:00,58.0,42.0,-100.00,SSE,168,3.0,5.0,56,0.00,,,0.00,,2013-07-24 10:43:00,
2013-07-24 04:53:00,58.0,42.0,-100.00,SSE,168,3.0,5.0,56,0.00,,,0.00,,2013-07-24 10:53:00,
2013-07-24 05:02:00,58.0,42.0,-100.00,SSE,168,3.0,5.0,56,0.00,,,0.00,,2013-07-24 11:02:00,
2013-07-24 05:22:00,57.0,43.0,-100.00,SE,131,5.0,7.0,60,0.00,,,0.00,,2013-07-24 11:22:00,
2013-07-24 05:43:00,55.0,40.0,-100.00,SE,137,5.0,6.0,57,0.00,,,0.00,,2013-07-24 11:43:00,
2013-07-24 05:52:00,55.0,40.0,-100.00,SE,137,5.0,6.0,57,0.00,,,0.00,,2013-07-24 11:52:00,
2013-07-24 06:02:00,55.0,40.0,-100.00,SE,137,5.0,6.0,57,0.00,,,0.00,,2013-07-24 12:02:00,
2013-07-24 06:22:00,56.0,36.0,-100.00,ESE,123,7.0,8.0,48,0.00,,,0.00,,2013-07-24 12:22:00,
2013-07-24 06:32:00,56.0,36.0,-100.00,ESE,123,7.0,8.0,48,0.00,,,0.00,,2013-07-24 12:32:00,
2013-07-24 06:42:00,56.0,36.0,-100.00,ESE,123,7.0,8.0,48,0.00,,,0.00,,2013-07-24 12:42:00,
2013-07-24 07:02:00,57.0,35.0,-100.00,SSE,152,7.0,8.0,43,0.00,,,0.00,,2013-07-24 13:02:00,
2013-07-24 07:12:00,54.0,38.0,-100.00,SSE,150,6.0,7.0,54,0.00,,,0.00,,2013-07-24 13:12:00,
2013-07-24 07:22:00,54.0,38.0,-100.00,SSE,150,6.0,7.0,54,0.00,,,0.00,,2013-07-24 13:22:00,
2013-07-24 07:32:00,56.0,37.0,-100.00,SE,141,5.0,6.0,50,0.00,,,0.00,,2013-07-24 13:32:00,
2013-07-24 07:43:00,56.0,37.0,-100.00,SE,141,5.0,6.0,50,0.00,,,0.00,,2013-07-24 13:43:00,
2013-07-24 07:53:00,56.0,37.0,-100.00,SE,141,5.0,6.0,50,0.00,,,0.00,,2013-07-24 13:53:00,
2013-07-24 08:12:00,56.0,39.0,-100.00,SE,134,4.0,6.0,53,0.00,,,0.00,,2013-07-24 14:12:00,
2013-07-24 08:22:00,56.0,39.0,-100.00,SE,134,4.0,6.0,53,0.00,,,0.00,,2013-07-24 14:22:00,
2013-07-24 08:43:00,63.0,41.0,-100.00,SSW,212,2.0,3.0,44,0.00,,,0.00,,2013-07-24 14:43:00,
2013-07-24 08:55:00,63.0,41.0,-100.00,SSW,212,2.0,3.0,44,0.00,,,0.00,,2013-07-24 14:55:00,
2013-07-24 11:30:00,79.0,43.0,-100.00,WNW,285,4.0,5.0,28,0.00,,,0.00,,2013-07-24 17:30:00,
2013-07-24 11:33:00,79.0,48.0,-100.00,WNW,302,4.0,5.0,34,0.00,,,0.00,,2013-07-24 17:33:00,
2013-07-24 12:02:00,79.0,43.0,-100.00,WNW,285,4.0,5.0,28,0.00,,,0.00,,2013-07-24 18:02:00,
2013-07-24 12:12:00,79.0,43.0,-100.00,WNW,285,4.0,5.0,28,0.00,,,0.00,,2013-07-24 18:12:00,
2013-07-24 12:22:00,79.0,43.0,-100.00,WNW,285,4.0,5.0,28,0.00,,,0.00,,2013-07-24 18:22:00,
2013-07-24 12:30:00,84.0,34.0,-100.00,West,274,3.0,4.0,17,0.00,,,0.00,,2013-07-24 18:30:00,
2013-07-24 13:02:00,84.0,34.0,-100.00,West,274,3.0,4.0,17,0.00,,,0.00,,2013-07-24 19:02:00,
2013-07-24 13:12:00,84.0,34.0,-100.00,West,274,3.0,4.0,17,0.00,,,0.00,,2013-07-24 19:12:00,
2013-07-24 13:22:00,84.0,34.0,-100.00,West,274,3.0,4.0,17,0.00,,,0.00,,2013-07-24 19:22:00,
2013-07-24 13:43:00,85.0,41.0,-100.00,NNE,23,2.0,3.0,22,0.00,,,0.00,,2013-07-24 19:43:00,
2013-07-24 13:53:00,85.0,41.0,-100.00,NNE,23,2.0,3.0,22,0.00,,,0.00,,2013-07-24 19:53:00,
2013-07-24 14:02:00,86.0,35.0,-100.00,WSW,257,6.0,8.0,16,0.00,,,0.00,,2013-07-24 20:02:00,
2013-07-24 14:13:00,86.0,35.0,-100.00,WSW,257,6.0,8.0,16,0.00,,,0.00,,2013-07-24 20:13:00,
2013-07-24 14:22:00,86.0,35.0,-100.00,WSW,257,6.0,8.0,16,0.00,,,0.00,,2013-07-24 20:22:00,
2013-07-24 14:32:00,88.0,40.0,-100.00,WNW,295,4.0,6.0,19,0.00,,,0.00,,2013-07-24 20:32:00,
2013-07-24 14:42:00,88.0,40.0,-100.00,WNW,295,4.0,6.0,19,0.00,,,0.00,,2013-07-24 20:42:00,
2013-07-24 14:53:00,88.0,40.0,-100.00,WNW,295,4.0,6.0,19,0.00,,,0.00,,2013-07-24 20:53:00,
2013-07-24 15:02:00,90.0,36.0,-100.00,West,271,5.0,7.0,15,0.00,,,0.00,,2013-07-24 21:02:00,
2013-07-24 15:12:00,90.0,36.0,-100.00,West,271,5.0,7.0,15,0.00,,,0.00,,2013-07-24 21:12:00,
2013-07-24 15:22:00,90.0,36.0,-100.00,West,271,5.0,7.0,15,0.00,,,0.00,,2013-07-24 21:22:00,
2013-07-24 15:32:00,88.0,40.0,-100.00,West,281,4.0,5.0,19,0.00,,,0.00,,2013-07-24 21:32:00,
2013-07-24 15:43:00,89.0,40.0,-100.00,WNW,285,3.0,5.0,18,0.00,,,0.00,,2013-07-24 21:43:00,
2013-07-24 15:52:00,89.0,40.0,-100.00,WNW,285,3.0,5.0,18,0.00,,,0.00,,2013-07-24 21:52:00,
2013-07-24 16:02:00,90.0,41.0,-100.00,West,280,2.0,4.0,18,0.00,,,0.00,,2013-07-24 22:02:00,
2013-07-24 16:12:00,90.0,41.0,-100.00,West,280,2.0,4.0,18,0.00,,,0.00,,2013-07-24 22:12:00,
2013-07-24 16:22:00,90.0,41.0,-100.00,West,280,2.0,4.0,18,0.00,,,0.00,,2013-07-24 22:22:00,
2013-07-24 16:30:00,89.0,47.0,-100.00,West,270,5.0,6.0,23,0.00,,,0.00,,2013-07-24 22:30:00,
2013-07-24 17:22:00,89.0,47.0,-100.00,West,270,5.0,6.0,23,0.00,,,0.00,,2013-07-24 23:22:00,
2013-07-24 20:33:00,82.0,47.0,-100.00,SSW,209,7.0,8.0,29,0.00,,,0.00,,2013-07-25 02:33:00,
2013-07-24 20:43:00,80.0,47.0,-100.00,South,189,7.0,8.0,31,0.00,,,0.00,,2013-07-25 02:43:00,
2013-07-24 21:00:00,76.0,44.0,-100.00,South,185,7.0,10.0,33,0.00,,,0.00,,2013-07-25 03:00:00,
2013-07-24 21:02:00,78.0,46.0,-100.00,South,191,4.0,6.0,32,0.00,,,0.00,,2013-07-25 03:02:00,
2013-07-24 21:23:00,76.0,44.0,-100.00,South,185,7.0,10.0,33,0.00,,,0.00,,2013-07-25 03:23:00,
2013-07-24 21:32:00,76.0,44.0,-100.00,South,185,7.0,10.0,33,0.00,,,0.00,,2013-07-25 03:32:00,
2013-07-24 21:45:00,76.0,44.0,-100.00,South,185,7.0,10.0,33,0.00,,,0.00,,2013-07-25 03:45:00,
2013-07-24 21:52:00,76.0,44.0,-100.00,South,185,7.0,10.0,33,0.00,,,0.00,,2013-07-25 03:52:00,
2013-07-24 22:22:00,76.0,45.0,-100.00,SSW,212,7.0,9.0,33,0.00,,,0.00,,2013-07-25 04:22:00,
2013-07-24 22:32:00,76.0,45.0,-100.00,SSW,212,7.0,9.0,33,0.00,,,0.00,,2013-07-25 04:32:00,
2013-07-24 22:43:00,72.0,45.0,-100.00,SW,215,6.0,7.0,38,0.00,,,0.00,,2013-07-25 04:43:00,
2013-07-24 22:53:00,72.0,45.0,-100.00,SW,215,6.0,7.0,38,0.00,,,0.00,,2013-07-25 04:53:00,
2013-07-24 23:02:00,72.0,45.0,-100.00,SW,215,6.0,7.0,38,0.00,,,0.00,,2013-07-25 05:02:00,
2013-07-24 23:12:00,72.0,45.0,-100.00,SW,215,6.0,7.0,38,0.00,,,0.00,,2013-07-25 05:12:00,
2013-07-24 23:22:00,72.0,44.0,-100.00,South,169,5.0,6.0,37,0.00,,,0.00,,2013-07-25 05:22:00,
2013-07-24 23:32:00,72.0,44.0,-100.00,South,169,5.0,6.0,37,0.00,,,0.00,,2013-07-25 05:32:00,
2013-07-24 23:43:00,71.0,44.0,-100.00,SSW,203,6.0,7.0,38,0.00,,,0.00,,2013-07-25 05:43:00,
2013-07-24 23:52:00,71.0,44.0,-100.00,SSW,203,6.0,7.0,38,0.00,,,0.00,,2013-07-25 05:52:00,